FW7071 Weather Reports


Display with metric or nautical units.
time (UTC)temp
F
wind
direction
speed
MPH
gust
MPH
rain 1hr
in
rain 24hr
in
rain mn
in
humidity
%
barometer
mb
20260508193459 66 227 8.0 9.0 0.00 0.00 0.00 43 1012.9
20260508192955 66 258 4.0 5.0 0.00 0.00 0.00 42 1012.8
20260508192452 67 260 9.0 11.0 0.00 0.00 0.00 43 1013.0
20260508191949 66 248 4.0 5.0 0.00 0.00 0.00 45 1012.8
20260508191446 66 309 8.0 9.0 0.00 0.00 0.00 45 1013.0
20260508190943 64 312 7.0 7.0 0.00 0.00 0.00 45 1013.2
20260508190440 64 300 6.0 8.0 0.00 0.00 0.00 45 1013.0
20260508185936 64 258 4.0 5.0 0.00 0.00 0.00 46 1013.3
20260508185434 64 285 9.0 10.0 0.00 0.00 0.00 46 1013.1
20260508184931 64 257 8.0 11.0 0.00 0.00 0.00 45 1013.0
20260508184428 64 232 6.0 8.0 0.00 0.00 0.00 45 1013.0
20260508183925 63 251 6.0 7.0 0.00 0.00 0.00 45 1013.2
20260508183422 63 246 5.0 6.0 0.00 0.00 0.00 47 1013.2
20260508182917 63 310 6.0 7.0 0.00 0.00 0.00 46 1013.2
20260508182414 64 237 5.0 7.0 0.00 0.00 0.00 46 1013.3
20260508181909 65 285 5.0 7.0 0.00 0.00 0.00 45 1013.3
20260508181406 64 298 7.0 9.0 0.00 0.00 0.00 45 1013.2
20260508180904 64 279 6.0 9.0 0.00 0.00 0.00 46 1013.2
20260508180400 64 285 4.0 6.0 0.00 0.00 0.00 46 1013.2
20260508175856 64 258 5.0 7.0 0.00 0.00 0.00 46 1013.1
20260508175353 64 294 9.0 14.0 0.00 0.00 0.00 44 1013.5
20260508174851 64 310 7.0 10.0 0.00 0.00 0.00 44 1013.5
20260508174348 64 197 4.0 5.0 0.00 0.00 0.00 45 1013.7
20260508173839 64 201 5.0 6.0 0.00 0.00 0.00 46 1013.5
20260508173336 63 273 5.0 6.0 0.00 0.00 0.00 47 1013.5
20260508172832 63 315 7.0 9.0 0.00 0.00 0.00 46 1013.8
20260508172330 62 229 6.0 8.0 0.00 0.00 0.00 48 1013.9
20260508171826 62 200 6.0 8.0 0.00 0.00 0.00 47 1013.8
20260508171322 61 245 8.0 10.0 0.00 0.00 0.00 47 1014.0
20260508170819 62 231 3.0 3.0 0.00 0.00 0.00 46 1014.0
20260508170318 62 259 5.0 8.0 0.00 0.00 0.00 48 1013.8
20260508165814 62 278 7.0 8.0 0.00 0.00 0.00 45 1013.9
20260508165311 62 265 8.0 11.0 0.00 0.00 0.00 46 1014.0
20260508164807 61 266 4.0 6.0 0.00 0.00 0.00 47 1014.0
20260508164304 61 336 4.0 7.0 0.00 0.00 0.00 48 1013.9
20260508163802 63 262 8.0 9.0 0.00 0.00 0.00 47 1013.9
20260508163259 63 296 10.0 14.0 0.00 0.00 0.00 46 1014.2
20260508162755 62 254 6.0 7.0 0.00 0.00 0.00 48 1014.1
20260508162251 61 227 5.0 7.0 0.00 0.00 0.00 49 1014.0
20260508161749 61 287 2.0 3.0 0.00 0.00 0.00 47 1014.0
20260508161246 60 197 2.0 5.0 0.00 0.00 0.00 49 1014.2
20260508160743 60 209 2.0 2.0 0.00 0.00 0.00 48 1014.4
20260508160242 61 217 8.0 11.0 0.00 0.00 0.00 48 1014.6
20260508155738 60 309 5.0 7.0 0.00 0.00 0.00 49 1014.6
20260508155235 60 312 5.0 6.0 0.00 0.00 0.00 48 1014.6
20260508154732 60 231 5.0 7.0 0.00 0.00 0.00 48 1014.7
20260508154229 59 224 5.0 6.0 0.00 0.00 0.00 50 1014.8
20260508153726 59 254 4.0 5.0 0.00 0.00 0.00 51 1015.0
20260508153223 59 235 3.0 5.0 0.00 0.00 0.00 51 1015.0
20260508152720 59 82 2.0 2.0 0.00 0.00 0.00 52 1015.2
20260508152215 59 258 4.0 5.0 0.00 0.00 0.00 50 1014.9
20260508151712 57 288 5.0 6.0 0.00 0.00 0.00 52 1015.1
20260508151209 57 217 3.0 3.0 0.00 0.00 0.00 54 1015.2
20260508150706 57 224 3.0 3.0 0.00 0.00 0.00 54 1015.6
20260508150202 57 343 3.0 5.0 0.00 0.00 0.00 53 1015.3
20260508145658 56 323 2.0 2.0 0.00 0.00 0.00 55 1015.6
20260508145154 56 228 4.0 6.0 0.00 0.00 0.00 55 1015.4
20260508144652 56 259 4.0 5.0 0.00 0.00 0.00 56 1015.2
20260508144150 56 227 3.0 3.0 0.00 0.00 0.00 59 1015.5
20260508143647 55 303 3.0 3.0 0.00 0.00 0.00 59 1015.5
20260508143144 55 283 2.0 2.0 0.00 0.00 0.00 59 1015.4
20260508142640 55 201 0.0 0.0 0.00 0.00 0.00 59 1015.4
20260508142137 55 240 3.0 5.0 0.00 0.00 0.00 59 1015.5
20260508141633 54 250 4.0 5.0 0.00 0.00 0.00 59 1015.3
20260508141131 54 240 4.0 5.0 0.00 0.00 0.00 59 1015.5
20260508140628 54 277 1.0 2.0 0.00 0.00 0.00 59 1015.7
20260508140125 55 314 3.0 3.0 0.00 0.00 0.00 60 1015.6
20260508135620 54 304 3.0 3.0 0.00 0.00 0.00 60 1015.6
20260508135117 54 278 4.0 5.0 0.00 0.00 0.00 60 1015.5
20260508134614 54 251 3.0 3.0 0.00 0.00 0.00 59 1015.6
20260508134111 54 237 3.0 3.0 0.00 0.00 0.00 60 1015.7
20260508133607 54 219 2.0 2.0 0.00 0.00 0.00 61 1015.6
20260508133105 53 307 3.0 3.0 0.00 0.00 0.00 63 1015.7
20260508132603 53 292 2.0 2.0 0.00 0.00 0.00 63 1015.8
20260508132059 54 222 3.0 3.0 0.00 0.00 0.00 63 1015.8
20260508131554 54 257 3.0 3.0 0.00 0.00 0.00 64 1015.7
20260508131052 53 224 3.0 3.0 0.00 0.00 0.00 63 1015.7
20260508130548 53 222 2.0 2.0 0.00 0.00 0.00 66 1015.6
20260508130045 53 237 2.0 2.0 0.00 0.00 0.00 65 1015.7
20260508125540 53 317 4.0 6.0 0.00 0.00 0.00 63 1015.6
20260508125038 53 228 2.0 2.0 0.00 0.00 0.00 68 1015.8
20260508124536 53 204 2.0 3.0 0.00 0.00 0.00 65 1015.7
20260508124033 53 170 2.0 2.0 0.00 0.00 0.00 67 1015.6
20260508123532 53 11 2.0 2.0 0.00 0.00 0.00 69 1015.7
20260508123028 53 163 1.0 2.0 0.00 0.00 0.00 70 1015.7
20260508122525 52 275 4.0 5.0 0.00 0.00 0.00 72 1015.7
20260508122022 52 255 5.0 8.0 0.00 0.00 0.00 73 1015.8
20260508121520 51 312 5.0 7.0 0.00 0.00 0.00 73 1015.8
20260508121018 51 314 7.0 8.0 0.00 0.00 0.00 72 1015.9
20260508120515 51 288 2.0 2.0 0.00 0.00 0.00 74 1015.7
20260508120013 51 133 1.0 2.0 0.00 0.00 0.00 74 1015.6
20260508115510 51 304 5.0 7.0 0.00 0.00 0.00 75 1015.4
20260508115006 50 46 1.0 1.0 0.00 0.00 0.00 75 1015.6
20260508114503 50 351 1.0 2.0 0.00 0.00 0.00 78 1015.4
20260508114000 49 98 0.0 0.0 0.00 0.00 0.00 80 1015.3
20260508113458 49 204 2.0 2.0 0.00 0.00 0.00 80 1015.3
20260508112955 49 212 1.0 1.0 0.00 0.00 0.00 79 1015.5
20260508112451 48 164 1.0 2.0 0.00 0.00 0.00 80 1015.4
20260508111948 48 231 1.0 1.0 0.00 0.00 0.00 81 1015.4
20260508111445 48 232 1.0 1.0 0.00 0.00 0.00 81 1015.3
20260508110942 47 250 1.0 2.0 0.00 0.00 0.00 82 1015.3
20260508110440 47 264 1.0 1.0 0.00 0.00 0.00 83 1015.2
20260508105939 46 242 0.0 0.0 0.00 0.00 0.00 83 1015.4
20260508105436 46 246 0.0 0.0 0.00 0.00 0.00 84 1015.0
20260508104933 46 249 0.0 0.0 0.00 0.00 0.00 84 1015.1
20260508104431 46 237 0.0 1.0 0.00 0.00 0.00 84 1015.0
20260508103927 45 233 0.0 0.0 0.00 0.00 0.00 85 1015.0
20260508103424 45 236 1.0 1.0 0.00 0.00 0.00 85 1015.0
20260508102921 45 239 0.0 0.0 0.00 0.00 0.00 86 1014.9
20260508102420 45 244 0.0 0.0 0.00 0.00 0.00 86 1015.1
20260508101916 44 250 0.0 0.0 0.00 0.00 0.00 87 1015.0
20260508101414 44 240 0.0 0.0 0.00 0.00 0.00 87 1014.9
20260508100911 44 235 0.0 0.0 0.00 0.00 0.00 87 1014.8
20260508100410 44 235 0.0 0.0 0.00 0.00 0.00 86 1014.6
20260508095910 45 240 0.0 0.0 0.00 0.00 0.00 86 1014.8
20260508095409 45 232 0.0 0.0 0.00 0.00 0.00 86 1014.7
20260508094905 45 245 1.0 1.0 0.00 0.00 0.00 85 1014.8
20260508094402 45 231 0.0 0.0 0.00 0.00 0.00 85 1014.5
20260508093859 45 246 0.0 0.0 0.00 0.00 0.00 84 1014.8
20260508093357 46 240 1.0 1.0 0.00 0.00 0.00 84 1014.5
20260508092854 45 236 1.0 1.0 0.00 0.00 0.00 84 1014.7
20260508092352 45 240 1.0 2.0 0.00 0.00 0.00 84 1014.7
20260508091850 45 231 1.0 1.0 0.00 0.00 0.00 84 1014.7
20260508091345 46 238 0.0 0.0 0.00 0.00 0.00 84 1014.9
20260508090844 46 225 0.0 1.0 0.00 0.00 0.00 84 1014.5
20260508090342 46 225 1.0 2.0 0.00 0.00 0.00 83 1014.6
20260508085837 46 235 1.0 2.0 0.00 0.00 0.00 83 1014.6
20260508085335 46 236 0.0 0.0 0.00 0.00 0.00 83 1014.5
20260508084831 46 231 1.0 1.0 0.00 0.00 0.00 83 1014.6
20260508084328 46 244 1.0 1.0 0.00 0.00 0.00 82 1014.4
20260508083826 46 239 1.0 1.0 0.00 0.00 0.00 82 1014.5
20260508083323 46 243 1.0 2.0 0.00 0.00 0.00 82 1014.4
20260508082823 46 241 1.0 1.0 0.00 0.00 0.00 82 1014.4
20260508082320 47 236 0.0 0.0 0.00 0.00 0.00 82 1014.3
20260508081817 47 249 0.0 1.0 0.00 0.00 0.00 82 1014.0
20260508081314 47 271 0.0 1.0 0.00 0.00 0.00 82 1014.2
20260508080812 47 228 1.0 1.0 0.00 0.00 0.00 82 1014.0
20260508080310 47 228 0.0 0.0 0.00 0.00 0.00 81 1013.9
20260508075806 48 232 1.0 1.0 0.00 0.00 0.00 81 1013.8
20260508075308 48 235 0.0 0.0 0.00 0.00 0.00 80 1013.8
20260508074801 48 234 0.0 1.0 0.00 0.00 0.00 80 1013.7
20260508074257 48 290 3.0 5.0 0.00 0.00 0.00 80 1013.9
20260508073754 48 297 2.0 3.0 0.00 0.00 0.00 79 1013.8
20260508073253 48 300 2.0 2.0 0.00 0.00 0.00 79 1013.5
20260508072748 49 283 2.0 2.0 0.00 0.00 0.00 78 1013.5
20260508072245 49 286 0.0 1.0 0.00 0.00 0.00 78 1013.3
20260508071742 49 316 1.0 1.0 0.00 0.00 0.00 77 1013.5
20260508071241 49 292 3.0 3.0 0.00 0.00 0.00 77 1013.5
20260508070738 50 222 0.0 1.0 0.00 0.00 0.00 76 1013.5
20260508070236 50 241 2.0 3.0 0.00 0.00 0.00 75 1013.5
20260508065733 50 310 5.0 7.0 0.00 0.00 0.00 74 1013.3
20260508065231 50 349 5.0 7.0 0.00 0.00 0.00 74 1013.4
20260508064728 51 91 1.0 1.0 0.00 0.00 0.00 73 1013.3
20260508064227 51 138 1.0 1.0 0.00 0.00 0.00 73 1013.1
20260508063724 51 70 1.0 1.0 0.00 0.00 0.00 73 1013.3
20260508063221 51 298 2.0 3.0 0.00 0.00 0.00 72 1013.4
20260508062719 51 274 1.0 1.0 0.00 0.00 0.00 71 1013.0
20260508062216 52 299 2.0 3.0 0.00 0.00 0.00 70 1013.0
20260508061713 52 169 0.0 1.0 0.00 0.00 0.00 69 1012.8
20260508061210 51 74 2.0 2.0 0.00 0.00 0.00 70 1012.8
20260508060706 52 92 0.0 0.0 0.00 0.00 0.00 69 1012.6
20260508060204 52 297 3.0 3.0 0.00 0.00 0.00 69 1012.6
20260508055659 52 165 1.0 1.0 0.00 0.00 0.00 68 1012.5
20260508055156 53 33 3.0 3.0 0.00 0.00 0.00 67 1012.7
20260508054653 53 251 3.0 6.0 0.00 0.00 0.00 66 1012.3
20260508054151 53 324 8.0 11.0 0.00 0.00 0.00 64 1012.4
20260508053648 52 277 2.0 2.0 0.00 0.00 0.00 68 1012.3
20260508053145 53 220 0.0 0.0 0.00 0.00 0.00 66 1011.9
20260508052642 53 290 2.0 2.0 0.00 0.00 0.00 66 1011.8
20260508052139 53 243 1.0 1.0 0.00 0.00 0.00 67 1011.7
20260508051635 53 245 1.0 1.0 0.00 0.00 0.00 68 1011.6
20260508051130 52 225 0.0 0.0 0.00 0.00 0.00 69 1011.5
20260508050627 52 225 0.0 0.0 0.00 0.00 0.00 70 1011.6
20260508050125 52 227 0.0 0.0 0.00 0.00 0.00 72 1011.4
20260508045620 53 254 1.0 2.0 0.00 0.00 0.00 72 1011.6
20260508045119 53 258 1.0 1.0 0.00 0.00 0.00 71 1011.5
20260508044616 53 272 1.0 2.0 0.00 0.00 0.00 71 1011.4
20260508044111 52 263 2.0 2.0 0.00 0.00 0.00 73 1011.2
20260508043608 52 215 1.0 1.0 0.00 0.00 0.00 74 1011.0
20260508043106 52 210 0.0 1.0 0.00 0.00 0.00 76 1011.4
20260508042602 52 201 0.0 0.0 0.00 0.00 0.00 76 1011.0
20260508042100 52 191 0.0 0.0 0.00 0.00 0.00 77 1011.0
20260508041556 53 214 0.0 0.0 0.00 0.00 0.00 77 1011.1
20260508041052 54 215 0.0 0.0 0.00 0.00 0.00 75 1011.0
20260508040549 54 258 1.0 1.0 0.00 0.00 0.00 66 1011.1
20260508040047 55 256 0.0 1.0 0.00 0.33 0.33 65 1011.1
20260508035544 55 248 1.0 1.0 0.00 0.33 0.33 64 1011.0
20260508035041 54 225 0.0 1.0 0.00 0.33 0.33 65 1010.9
20260508034538 55 230 0.0 1.0 0.00 0.33 0.33 64 1010.9
20260508034035 55 222 0.0 0.0 0.00 0.33 0.33 65 1010.9
20260508033533 55 223 0.0 0.0 0.00 0.33 0.33 68 1011.0
20260508033031 55 231 0.0 0.0 0.00 0.33 0.33 63 1010.8
20260508032527 55 227 0.0 1.0 0.00 0.33 0.33 62 1010.9
20260508032025 55 247 1.0 1.0 0.00 0.33 0.33 62 1010.9
20260508031521 55 265 1.0 2.0 0.00 0.33 0.33 62 1011.0
20260508031017 54 224 1.0 1.0 0.00 0.33 0.33 64 1010.7
20260508030514 54 217 1.0 1.0 0.00 0.33 0.33 65 1010.7
20260508030013 53 199 0.0 0.0 0.00 0.33 0.33 69 1010.9
20260508025508 53 198 0.0 0.0 0.00 0.33 0.33 68 1010.8
20260508025005 53 199 0.0 0.0 0.00 0.33 0.33 68 1010.8
20260508024501 53 197 0.0 0.0 0.00 0.33 0.33 70 1010.7
20260508023958 54 195 0.0 0.0 0.00 0.33 0.33 73 1010.8
20260508023454 55 193 0.0 0.0 0.00 0.33 0.33 68 1010.8
20260508022952 55 193 0.0 0.0 0.00 0.33 0.33 58 1011.0
20260508022447 55 191 0.0 1.0 0.00 0.33 0.33 58 1011.0
20260508021944 55 197 0.0 0.0 0.00 0.33 0.33 58 1011.0
20260508021441 55 199 0.0 1.0 0.00 0.33 0.33 59 1010.7
20260508020937 55 205 0.0 0.0 0.00 0.33 0.33 58 1010.7
20260508020435 55 204 0.0 1.0 0.00 0.33 0.33 59 1010.8
20260508015931 55 203 0.0 0.0 0.00 0.33 0.33 58 1010.8
20260508015429 55 204 1.0 1.0 0.00 0.33 0.33 61 1010.7
20260508014926 55 198 1.0 1.0 0.00 0.33 0.33 58 1010.6
20260508014423 54 179 0.0 0.0 0.00 0.33 0.33 58 1010.6
20260508013918 54 179 0.0 0.0 0.00 0.33 0.33 58 1010.5
20260508013414 54 179 0.0 0.0 0.00 0.33 0.33 59 1010.5
20260508012912 54 172 0.0 0.0 0.00 0.33 0.33 59 1010.6
20260508012409 54 170 0.0 0.0 0.00 0.33 0.33 58 1010.5
20260508011906 54 169 0.0 0.0 0.00 0.33 0.33 59 1010.5
20260508011404 55 169 0.0 0.0 0.00 0.33 0.33 60 1010.6
20260508010901 55 154 0.0 0.0 0.00 0.33 0.33 58 1010.4
20260508010358 55 153 0.0 0.0 0.00 0.33 0.33 59 1010.3
20260508005855 55 153 0.0 0.0 0.00 0.33 0.33 57 1010.3
20260508005352 55 153 0.0 0.0 0.00 0.33 0.33 55 1010.3
20260508004848 55 153 0.0 0.0 0.00 0.33 0.33 55 1010.3
20260508004344 55 153 0.0 0.0 0.00 0.33 0.33 54 1010.2
20260508003841 55 153 0.0 0.0 0.00 0.33 0.33 57 1010.3
20260508003338 55 153 0.0 0.0 0.00 0.33 0.33 56 1010.3
20260508002835 55 153 0.0 0.0 0.00 0.33 0.33 56 1010.3
20260508002332 55 153 0.0 0.0 0.00 0.33 0.33 56 1010.3
20260508001828 56 153 0.0 0.0 0.00 0.33 0.33 55 1010.1
20260508001324 56 153 0.0 0.0 0.00 0.33 0.33 54 1010.1
20260508000821 56 153 0.0 0.0 0.00 0.33 0.33 55 1010.2
20260508000319 56 152 0.0 0.0 0.00 0.33 0.33 55 1010.2
20260507235814 57 152 0.0 0.0 0.00 0.33 0.33 54 1010.1
20260507235311 57 152 0.0 0.0 0.00 0.33 0.33 52 1009.8
20260507234808 58 152 0.0 0.0 0.00 0.33 0.33 52 1009.9
20260507234305 59 152 0.0 0.0 0.00 0.33 0.33 49 1009.9
20260507233801 60 152 0.0 0.0 0.00 0.33 0.33 47 1010.0
20260507233259 60 154 0.0 0.0 0.00 0.33 0.33 47 1009.7
20260507232757 62 259 0.0 1.0 0.00 0.33 0.33 45 1009.9
20260507232253 62 297 4.0 5.0 0.00 0.33 0.33 41 1009.6
20260507231750 63 260 1.0 1.0 0.00 0.33 0.33 42 1009.6
20260507231247 62 259 1.0 1.0 0.00 0.33 0.33 42 1009.6
20260507230743 63 276 2.0 2.0 0.00 0.33 0.33 41 1009.8
20260507230241 64 291 1.0 1.0 0.00 0.33 0.33 40 1009.8
20260507225740 63 282 1.0 1.0 0.00 0.33 0.33 41 1009.7
20260507225237 63 128 1.0 1.0 0.00 0.33 0.33 42 1009.7
20260507224732 65 185 0.0 0.0 0.00 0.33 0.33 42 1009.5
20260507224230 65 249 2.0 2.0 0.00 0.33 0.33 40 1009.6
20260507223726 64 282 0.0 1.0 0.00 0.33 0.33 41 1009.6
20260507223222 64 171 0.0 1.0 0.00 0.33 0.33 43 1009.7
20260507222719 63 241 1.0 1.0 0.00 0.33 0.33 43 1009.7
20260507222216 64 178 0.0 0.0 0.00 0.33 0.33 43 1009.5
20260507221712 65 230 0.0 1.0 0.00 0.33 0.33 41 1009.7
20260507221209 64 292 3.0 3.0 0.00 0.33 0.33 40 1009.5
20260507220705 65 261 7.0 8.0 0.00 0.33 0.33 39 1009.9
20260507220204 65 244 4.0 5.0 0.00 0.33 0.33 40 1009.8
20260507215659 64 290 3.0 5.0 0.00 0.33 0.33 40 1009.9
20260507215157 64 291 2.0 5.0 0.00 0.33 0.33 41 1009.9
20260507214654 64 279 6.0 8.0 0.00 0.33 0.33 41 1009.7
20260507214151 64 236 5.0 6.0 0.00 0.33 0.33 40 1010.0
20260507213646 66 230 8.0 9.0 0.00 0.33 0.33 39 1009.8
20260507213144 65 280 3.0 6.0 0.00 0.33 0.33 39 1009.9
20260507212640 66 243 1.0 1.0 0.00 0.33 0.33 39 1009.9
20260507212137 65 78 1.0 1.0 0.00 0.33 0.33 43 1009.7
20260507211634 65 281 1.0 2.0 0.00 0.33 0.33 42 1009.7
20260507211129 65 292 3.0 5.0 0.00 0.33 0.33 39 1009.8
20260507210627 66 265 3.0 3.0 0.00 0.33 0.33 41 1009.8
20260507210124 66 257 2.0 2.0 0.00 0.33 0.33 40 1009.7
20260507205620 66 172 1.0 1.0 0.00 0.33 0.33 41 1009.7
20260507205117 66 244 1.0 2.0 0.00 0.33 0.33 39 1009.5
20260507204613 66 241 1.0 1.0 0.00 0.33 0.33 41 1009.6
20260507204111 66 253 4.0 6.0 0.00 0.33 0.33 40 1009.7
20260507203609 67 219 3.0 3.0 0.00 0.33 0.33 38 1009.6
20260507203106 66 285 4.0 5.0 0.00 0.33 0.33 39 1009.8
20260507202601 65 270 4.0 6.0 0.00 0.33 0.33 38 1009.7
20260507202058 65 250 4.0 7.0 0.00 0.33 0.33 39 1009.9
20260507201553 66 270 5.0 7.0 0.00 0.33 0.33 39 1009.7
20260507201050 66 282 5.0 7.0 0.00 0.33 0.33 39 1009.5
20260507200545 66 227 1.0 1.0 0.00 0.33 0.33 41 1009.6
20260507200042 65 69 1.0 1.0 0.00 0.33 0.33 41 1009.7
20260507195539 64 278 5.0 6.0 0.00 0.33 0.33 40 1009.4
20260507195037 64 278 6.0 7.0 0.00 0.33 0.33 38 1009.7
20260507194532 65 302 9.0 14.0 0.00 0.33 0.33 38 1009.9
20260507194029 64 278 3.0 3.0 0.00 0.33 0.33 41 1009.9